| time (UTC) | temp F | wind direction | speed MPH | gust MPH | rain 1hr in | rain 24hr in | rain mn in | humidity % | barometer mb |
| 20260505215015 | 90 | 213 | 3.0 | 8.0 | 0.00 | 0.00 | 0.00 | 43 | 1005.2 |
| 20260505214544 | 90 | 223 | 3.0 | 8.0 | 0.00 | 0.00 | 0.00 | 44 | 1005.3 |
| 20260505214015 | 90 | 235 | 2.0 | 9.0 | 0.00 | 0.00 | 0.00 | 43 | 1005.2 |
| 20260505213518 | 89 | 219 | 4.0 | 9.0 | 0.00 | 0.00 | 0.00 | 45 | 1005.2 |
| 20260505213030 | 89 | 239 | 4.0 | 9.0 | 0.00 | 0.00 | 0.00 | 44 | 1005.2 |
| 20260505212515 | 89 | 221 | 4.0 | 8.0 | 0.00 | 0.00 | 0.00 | 45 | 1005.4 |
| 20260505212016 | 89 | 225 | 2.0 | 8.0 | 0.00 | 0.00 | 0.00 | 48 | 1005.4 |
| 20260505211530 | 89 | 250 | 2.0 | 8.0 | 0.00 | 0.00 | 0.00 | 47 | 1005.4 |
| 20260505211016 | 89 | 223 | 3.0 | 7.0 | 0.00 | 0.00 | 0.00 | 46 | 1005.5 |
| 20260505210515 | 89 | 195 | 2.0 | 10.0 | 0.00 | 0.00 | 0.00 | 44 | 1005.5 |
| 20260505210030 | 90 | 229 | 5.0 | 10.0 | 0.00 | 0.00 | 0.00 | 45 | 1005.6 |
| 20260505205514 | 91 | 220 | 2.0 | 9.0 | 0.00 | 0.00 | 0.00 | 43 | 1005.6 |
| 20260505205017 | 90 | 203 | 2.0 | 7.0 | 0.00 | 0.00 | 0.00 | 46 | 1005.6 |
| 20260505204533 | 89 | 300 | 2.0 | 11.0 | 0.00 | 0.00 | 0.00 | 40 | 1005.5 |
| 20260505204014 | 90 | 228 | 5.0 | 11.0 | 0.00 | 0.00 | 0.00 | 42 | 1005.7 |
| 20260505203518 | 89 | 235 | 4.0 | 8.0 | 0.00 | 0.00 | 0.00 | 44 | 1005.8 |
| 20260505203030 | 89 | 342 | 3.0 | 7.0 | 0.00 | 0.00 | 0.00 | 40 | 1005.9 |
| 20260505202515 | 90 | 151 | 2.0 | 11.0 | 0.00 | 0.00 | 0.00 | 43 | 1006.0 |
| 20260505202015 | 90 | 257 | 4.0 | 11.0 | 0.00 | 0.00 | 0.00 | 41 | 1006.0 |
| 20260505201530 | 89 | 211 | 5.0 | 11.0 | 0.00 | 0.00 | 0.00 | 45 | 1006.0 |
| 20260505201015 | 90 | 288 | 6.0 | 11.0 | 0.00 | 0.00 | 0.00 | 42 | 1005.9 |
| 20260505200516 | 90 | 240 | 5.0 | 11.0 | 0.00 | 0.00 | 0.00 | 42 | 1005.9 |
| 20260505200041 | 90 | 267 | 5.0 | 14.0 | 0.00 | 0.00 | 0.00 | 42 | 1005.9 |
| 20260505195516 | 89 | 286 | 3.0 | 14.0 | 0.00 | 0.00 | 0.00 | 45 | 1005.9 |
| 20260505195015 | 89 | 213 | 5.0 | 12.0 | 0.00 | 0.00 | 0.00 | 47 | 1006.1 |
| 20260505194532 | 89 | 257 | 5.0 | 12.0 | 0.00 | 0.00 | 0.00 | 48 | 1006.1 |
| 20260505194019 | 89 | 196 | 6.0 | 13.0 | 0.00 | 0.00 | 0.00 | 48 | 1006.1 |
| 20260505193518 | 88 | 233 | 8.0 | 13.0 | 0.00 | 0.00 | 0.00 | 48 | 1006.3 |
| 20260505193035 | 87 | 182 | 6.0 | 12.0 | 0.00 | 0.00 | 0.00 | 48 | 1006.3 |
| 20260505192519 | 88 | 211 | 5.0 | 15.0 | 0.00 | 0.00 | 0.00 | 49 | 1006.4 |
| 20260505192019 | 88 | 223 | 6.0 | 15.0 | 0.00 | 0.00 | 0.00 | 50 | 1006.2 |
| 20260505191531 | 87 | 216 | 6.0 | 15.0 | 0.00 | 0.00 | 0.00 | 51 | 1006.4 |
| 20260505191021 | 87 | 222 | 5.0 | 16.0 | 0.00 | 0.00 | 0.00 | 52 | 1006.5 |
| 20260505190515 | 88 | 205 | 10.0 | 16.0 | 0.00 | 0.00 | 0.00 | 49 | 1006.6 |
| 20260505190032 | 88 | 226 | 5.0 | 16.0 | 0.00 | 0.00 | 0.00 | 52 | 1006.6 |
| 20260505185519 | 87 | 242 | 7.0 | 16.0 | 0.00 | 0.00 | 0.00 | 50 | 1006.7 |
| 20260505185022 | 87 | 245 | 7.0 | 16.0 | 0.00 | 0.00 | 0.00 | 51 | 1006.7 |
| 20260505184533 | 86 | 240 | 9.0 | 16.0 | 0.00 | 0.00 | 0.00 | 51 | 1006.8 |
| 20260505184015 | 86 | 242 | 9.0 | 15.0 | 0.00 | 0.00 | 0.00 | 53 | 1006.9 |
| 20260505183516 | 86 | 234 | 9.0 | 15.0 | 0.00 | 0.00 | 0.00 | 54 | 1007.1 |
| 20260505183046 | 85 | 244 | 6.0 | 17.0 | 0.00 | 0.00 | 0.00 | 56 | 1006.9 |
| 20260505182517 | 85 | 228 | 10.0 | 17.0 | 0.00 | 0.00 | 0.00 | 55 | 1007.0 |
| 20260505182017 | 85 | 217 | 8.0 | 16.0 | 0.00 | 0.00 | 0.00 | 55 | 1007.0 |
| 20260505181532 | 85 | 203 | 6.0 | 17.0 | 0.00 | 0.00 | 0.00 | 57 | 1007.1 |
| 20260505181017 | 85 | 254 | 8.0 | 17.0 | 0.00 | 0.00 | 0.00 | 54 | 1007.0 |
| 20260505180517 | 85 | 199 | 7.0 | 17.0 | 0.00 | 0.00 | 0.00 | 58 | 1007.1 |
| 20260505180038 | 85 | 248 | 6.0 | 13.0 | 0.00 | 0.00 | 0.00 | 59 | 1007.1 |
| 20260505175516 | 84 | 241 | 8.0 | 13.0 | 0.00 | 0.00 | 0.00 | 59 | 1007.2 |
| 20260505175016 | 84 | 290 | 7.0 | 13.0 | 0.00 | 0.00 | 0.00 | 60 | 1007.1 |
| 20260505174531 | 83 | 242 | 6.0 | 16.0 | 0.00 | 0.00 | 0.00 | 60 | 1007.1 |
| 20260505174016 | 83 | 240 | 8.0 | 16.0 | 0.00 | 0.00 | 0.00 | 58 | 1007.1 |
| 20260505173519 | 84 | 231 | 5.0 | 15.0 | 0.00 | 0.00 | 0.00 | 63 | 1007.1 |
| 20260505173029 | 83 | 212 | 7.0 | 15.0 | 0.00 | 0.00 | 0.00 | 61 | 1007.1 |
| 20260505172515 | 83 | 204 | 7.0 | 15.0 | 0.00 | 0.00 | 0.00 | 62 | 1007.2 |
| 20260505172015 | 83 | 238 | 4.0 | 12.0 | 0.00 | 0.00 | 0.00 | 64 | 1007.2 |
| 20260505171532 | 82 | 199 | 6.0 | 12.0 | 0.00 | 0.00 | 0.00 | 65 | 1007.1 |
| 20260505171016 | 81 | 178 | 5.0 | 14.0 | 0.00 | 0.00 | 0.00 | 65 | 1007.2 |
| 20260505170515 | 80 | 223 | 5.0 | 14.0 | 0.00 | 0.00 | 0.00 | 67 | 1007.2 |
| 20260505170030 | 79 | 232 | 9.0 | 14.0 | 0.00 | 0.00 | 0.00 | 67 | 1007.2 |
| 20260505165514 | 79 | 248 | 7.0 | 13.0 | 0.00 | 0.00 | 0.00 | 67 | 1007.2 |
| 20260505165014 | 79 | 204 | 5.0 | 13.0 | 0.00 | 0.00 | 0.00 | 68 | 1007.2 |
| 20260505164529 | 79 | 167 | 6.0 | 13.0 | 0.00 | 0.00 | 0.00 | 68 | 1007.2 |
| 20260505164017 | 79 | 159 | 5.0 | 12.0 | 0.00 | 0.00 | 0.00 | 69 | 1007.2 |
| 20260505163517 | 79 | 220 | 5.0 | 12.0 | 0.00 | 0.00 | 0.00 | 68 | 1007.2 |
| 20260505163032 | 78 | 186 | 6.0 | 13.0 | 0.00 | 0.00 | 0.00 | 68 | 1007.1 |
| 20260505162517 | 78 | 188 | 6.0 | 15.0 | 0.00 | 0.00 | 0.00 | 69 | 1007.1 |
| 20260505162018 | 78 | 185 | 6.0 | 15.0 | 0.00 | 0.00 | 0.00 | 70 | 1007.2 |
| 20260505161530 | 78 | 193 | 7.0 | 14.0 | 0.00 | 0.00 | 0.00 | 69 | 1007.2 |
| 20260505161017 | 78 | 221 | 7.0 | 14.0 | 0.00 | 0.00 | 0.00 | 70 | 1007.0 |
| 20260505160518 | 78 | 174 | 6.0 | 15.0 | 0.00 | 0.00 | 0.00 | 71 | 1007.0 |
| 20260505153030 | 76 | 212 | 7.0 | 16.0 | 0.00 | 0.00 | 0.00 | 74 | 1006.7 |
| 20260505152518 | 76 | 236 | 7.0 | 13.0 | 0.00 | 0.00 | 0.00 | 73 | 1006.8 |
| 20260505152017 | 76 | 217 | 5.0 | 15.0 | 0.00 | 0.00 | 0.00 | 75 | 1006.8 |
| 20260505151535 | 75 | 211 | 7.0 | 15.0 | 0.00 | 0.00 | 0.00 | 75 | 1006.8 |
| 20260505151017 | 75 | 246 | 8.0 | 16.0 | 0.00 | 0.00 | 0.00 | 75 | 1006.8 |
| 20260505150525 | 74 | 236 | 8.0 | 16.0 | 0.00 | 0.00 | 0.00 | 76 | 1006.8 |
| 20260505140518 | 71 | 208 | 6.0 | 16.0 | 0.00 | 0.00 | 0.00 | 81 | 1006.5 |
| 20260505125018 | 67 | 182 | 4.0 | 13.0 | 0.00 | 0.00 | 0.00 | 87 | 1006.1 |
| 20260505124537 | 67 | 169 | 5.0 | 13.0 | 0.00 | 0.00 | 0.00 | 87 | 1006.1 |
| 20260505124017 | 66 | 207 | 3.0 | 9.0 | 0.00 | 0.00 | 0.00 | 88 | 1006.1 |
| 20260505123524 | 66 | 189 | 3.0 | 9.0 | 0.00 | 0.00 | 0.00 | 88 | 1006.0 |
| 20260505123031 | 66 | 215 | 4.0 | 12.0 | 0.00 | 0.00 | 0.00 | 88 | 1005.9 |
| 20260505122520 | 66 | 188 | 3.0 | 12.0 | 0.00 | 0.00 | 0.00 | 88 | 1005.8 |
| 20260505122015 | 66 | 196 | 3.0 | 9.0 | 0.00 | 0.00 | 0.00 | 88 | 1005.8 |
| 20260505121537 | 66 | 200 | 4.0 | 11.0 | 0.00 | 0.00 | 0.00 | 88 | 1005.9 |
| 20260505121018 | 66 | 182 | 4.0 | 11.0 | 0.00 | 0.00 | 0.00 | 88 | 1005.8 |
| 20260505120520 | 65 | 221 | 3.0 | 9.0 | 0.00 | 0.00 | 0.00 | 88 | 1005.7 |
| 20260505120043 | 65 | 199 | 3.0 | 10.0 | 0.00 | 0.00 | 0.00 | 88 | 1005.7 |
| 20260505115521 | 65 | 203 | 3.0 | 10.0 | 0.00 | 0.00 | 0.00 | 88 | 1005.6 |
| 20260505115018 | 66 | 186 | 3.0 | 10.0 | 0.00 | 0.00 | 0.00 | 88 | 1005.6 |
| 20260505114537 | 66 | 194 | 3.0 | 9.0 | 0.00 | 0.00 | 0.00 | 87 | 1005.7 |
| 20260505114014 | 66 | 202 | 3.0 | 12.0 | 0.00 | 0.00 | 0.00 | 87 | 1005.7 |
| 20260505113517 | 66 | 180 | 3.0 | 12.0 | 0.00 | 0.00 | 0.00 | 87 | 1005.7 |
| 20260505113034 | 66 | 189 | 2.0 | 12.0 | 0.00 | 0.00 | 0.00 | 87 | 1005.5 |
| 20260505112517 | 66 | 214 | 4.0 | 12.0 | 0.00 | 0.00 | 0.00 | 87 | 1005.5 |
| 20260505112014 | 66 | 193 | 3.0 | 11.0 | 0.00 | 0.00 | 0.00 | 87 | 1005.4 |
| 20260505111533 | 66 | 221 | 4.0 | 11.0 | 0.00 | 0.00 | 0.00 | 86 | 1005.5 |
| 20260505111018 | 66 | 207 | 4.0 | 11.0 | 0.00 | 0.00 | 0.00 | 86 | 1005.4 |
| 20260505110518 | 66 | 196 | 4.0 | 12.0 | 0.00 | 0.00 | 0.00 | 86 | 1005.4 |
| 20260505102016 | 67 | 202 | 4.0 | 12.0 | 0.00 | 0.00 | 0.00 | 84 | 1005.5 |
| 20260505101545 | 67 | 221 | 5.0 | 12.0 | 0.00 | 0.00 | 0.00 | 84 | 1005.5 |
| 20260505101017 | 67 | 196 | 4.0 | 12.0 | 0.00 | 0.00 | 0.00 | 84 | 1005.6 |
| 20260505100517 | 67 | 164 | 4.0 | 12.0 | 0.00 | 0.00 | 0.00 | 84 | 1005.4 |
| 20260505100037 | 67 | 151 | 4.0 | 12.0 | 0.00 | 0.00 | 0.00 | 84 | 1005.5 |
| 20260505095515 | 67 | 216 | 4.0 | 11.0 | 0.00 | 0.00 | 0.00 | 84 | 1005.4 |
| 20260505095015 | 67 | 162 | 4.0 | 10.0 | 0.00 | 0.00 | 0.00 | 84 | 1005.5 |
| 20260505094537 | 67 | 184 | 4.0 | 12.0 | 0.00 | 0.00 | 0.00 | 84 | 1005.5 |
| 20260505094015 | 67 | 222 | 4.0 | 12.0 | 0.00 | 0.00 | 0.00 | 84 | 1005.6 |
| 20260505093515 | 67 | 156 | 4.0 | 11.0 | 0.00 | 0.00 | 0.00 | 83 | 1005.8 |
| 20260505093033 | 67 | 200 | 4.0 | 11.0 | 0.00 | 0.00 | 0.00 | 83 | 1005.7 |
| 20260505092518 | 67 | 169 | 4.0 | 11.0 | 0.00 | 0.00 | 0.00 | 83 | 1005.6 |
| 20260505092016 | 67 | 188 | 4.0 | 10.0 | 0.00 | 0.00 | 0.00 | 83 | 1005.6 |
| 20260505091535 | 67 | 205 | 3.0 | 9.0 | 0.00 | 0.00 | 0.00 | 83 | 1005.8 |
| 20260505091015 | 68 | 215 | 4.0 | 10.0 | 0.00 | 0.00 | 0.00 | 83 | 1005.8 |
| 20260505090515 | 68 | 198 | 3.0 | 11.0 | 0.00 | 0.00 | 0.00 | 83 | 1005.8 |
| 20260505090031 | 68 | 166 | 4.0 | 11.0 | 0.00 | 0.00 | 0.00 | 82 | 1006.0 |
| 20260505085517 | 68 | 249 | 5.0 | 11.0 | 0.00 | 0.00 | 0.00 | 82 | 1006.0 |
| 20260505085015 | 68 | 181 | 3.0 | 10.0 | 0.00 | 0.00 | 0.00 | 82 | 1005.9 |
| 20260505084531 | 68 | 207 | 4.0 | 10.0 | 0.00 | 0.00 | 0.00 | 82 | 1006.0 |
| 20260505084016 | 68 | 208 | 3.0 | 11.0 | 0.00 | 0.00 | 0.00 | 82 | 1006.0 |
| 20260505083515 | 68 | 204 | 4.0 | 13.0 | 0.00 | 0.00 | 0.00 | 82 | 1006.0 |
| 20260505083031 | 68 | 184 | 5.0 | 13.0 | 0.00 | 0.00 | 0.00 | 82 | 1006.1 |
| 20260505082521 | 68 | 221 | 3.0 | 12.0 | 0.00 | 0.00 | 0.00 | 82 | 1006.1 |
| 20260505082019 | 68 | 205 | 3.0 | 12.0 | 0.00 | 0.00 | 0.00 | 81 | 1006.2 |
| 20260505081531 | 68 | 199 | 4.0 | 12.0 | 0.00 | 0.00 | 0.00 | 81 | 1006.2 |
| 20260505081021 | 68 | 192 | 4.0 | 8.0 | 0.00 | 0.00 | 0.00 | 81 | 1006.2 |
| 20260505080516 | 68 | 213 | 4.0 | 8.0 | 0.00 | 0.00 | 0.00 | 81 | 1006.2 |
| 20260505080036 | 68 | 210 | 3.0 | 8.0 | 0.00 | 0.00 | 0.00 | 81 | 1006.1 |
| 20260505075515 | 68 | 132 | 3.0 | 9.0 | 0.00 | 0.00 | 0.00 | 81 | 1006.1 |
| 20260505075019 | 69 | 215 | 3.0 | 9.0 | 0.00 | 0.00 | 0.00 | 81 | 1006.3 |
| 20260505074532 | 69 | 192 | 4.0 | 9.0 | 0.00 | 0.00 | 0.00 | 80 | 1006.4 |
| 20260505074015 | 69 | 202 | 2.0 | 10.0 | 0.00 | 0.00 | 0.00 | 80 | 1006.4 |
| 20260505073520 | 69 | 185 | 3.0 | 10.0 | 0.00 | 0.00 | 0.00 | 80 | 1006.4 |
| 20260505073031 | 69 | 228 | 3.0 | 8.0 | 0.00 | 0.00 | 0.00 | 79 | 1006.5 |
| 20260505072516 | 69 | 174 | 3.0 | 9.0 | 0.00 | 0.00 | 0.00 | 79 | 1006.7 |
| 20260505072015 | 70 | 178 | 3.0 | 11.0 | 0.00 | 0.00 | 0.00 | 78 | 1006.7 |
| 20260505071541 | 70 | 173 | 3.0 | 12.0 | 0.00 | 0.00 | 0.00 | 78 | 1006.6 |
| 20260505071016 | 70 | 173 | 4.0 | 12.0 | 0.00 | 0.00 | 0.00 | 77 | 1006.8 |
| 20260505070521 | 70 | 130 | 5.0 | 11.0 | 0.00 | 0.00 | 0.00 | 77 | 1006.8 |
| 20260505070033 | 70 | 192 | 4.0 | 12.0 | 0.00 | 0.00 | 0.00 | 77 | 1006.8 |
| 20260505065516 | 70 | 181 | 4.0 | 12.0 | 0.00 | 0.00 | 0.00 | 77 | 1006.8 |
| 20260505065016 | 70 | 188 | 4.0 | 10.0 | 0.00 | 0.00 | 0.00 | 77 | 1006.9 |
| 20260505064531 | 70 | 196 | 4.0 | 10.0 | 0.00 | 0.00 | 0.00 | 77 | 1006.9 |
| 20260505064015 | 71 | 168 | 4.0 | 10.0 | 0.00 | 0.00 | 0.00 | 77 | 1007.0 |
| 20260505063515 | 71 | 162 | 3.0 | 12.0 | 0.00 | 0.00 | 0.00 | 77 | 1007.1 |
| 20260505063031 | 71 | 203 | 4.0 | 12.0 | 0.00 | 0.00 | 0.00 | 76 | 1007.1 |
| 20260505062515 | 71 | 233 | 4.0 | 13.0 | 0.00 | 0.00 | 0.00 | 76 | 1007.2 |
| 20260505062015 | 71 | 186 | 4.0 | 13.0 | 0.00 | 0.00 | 0.00 | 76 | 1007.2 |
| 20260505061532 | 71 | 162 | 4.0 | 13.0 | 0.00 | 0.00 | 0.00 | 76 | 1007.3 |
| 20260505061018 | 71 | 171 | 4.0 | 13.0 | 0.00 | 0.00 | 0.00 | 76 | 1007.3 |
| 20260505060516 | 71 | 190 | 4.0 | 12.0 | 0.00 | 0.00 | 0.00 | 76 | 1007.4 |
| 20260505060044 | 71 | 224 | 5.0 | 12.0 | 0.00 | 0.00 | 0.00 | 77 | 1007.4 |
| 20260505055520 | 70 | 185 | 4.0 | 12.0 | 0.00 | 0.00 | 0.00 | 77 | 1007.4 |
| 20260505055016 | 70 | 165 | 3.0 | 12.0 | 0.00 | 0.00 | 0.00 | 77 | 1007.4 |
| 20260505054535 | 70 | 165 | 3.0 | 14.0 | 0.00 | 0.00 | 0.00 | 77 | 1007.3 |
| 20260505054016 | 70 | 187 | 3.0 | 14.0 | 0.00 | 0.00 | 0.00 | 77 | 1007.3 |
| 20260505053517 | 70 | 180 | 3.0 | 12.0 | 0.00 | 0.00 | 0.00 | 77 | 1007.4 |
| 20260505053032 | 70 | 134 | 3.0 | 12.0 | 0.00 | 0.00 | 0.00 | 77 | 1007.4 |
| 20260505052515 | 70 | 167 | 2.0 | 10.0 | 0.00 | 0.00 | 0.00 | 77 | 1007.4 |
| 20260505052015 | 71 | 173 | 3.0 | 10.0 | 0.00 | 0.00 | 0.00 | 76 | 1007.3 |
| 20260505051535 | 71 | 186 | 4.0 | 11.0 | 0.00 | 0.00 | 0.00 | 76 | 1007.4 |
| 20260505051015 | 71 | 185 | 4.0 | 11.0 | 0.00 | 0.00 | 0.00 | 75 | 1007.4 |
| 20260505050516 | 71 | 154 | 3.0 | 10.0 | 0.00 | 0.00 | 0.00 | 75 | 1007.4 |
| 20260505041530 | 72 | 167 | 3.0 | 13.0 | 0.00 | 0.00 | 0.00 | 72 | 1007.3 |
| 20260505041016 | 72 | 174 | 3.0 | 12.0 | 0.00 | 0.00 | 0.00 | 72 | 1007.2 |
| 20260505040516 | 73 | 180 | 2.0 | 13.0 | 0.00 | 0.00 | 0.00 | 72 | 1007.2 |
| 20260505040036 | 73 | 168 | 4.0 | 13.0 | 0.00 | 0.00 | 0.00 | 72 | 1007.2 |
| 20260505035518 | 73 | 155 | 4.0 | 10.0 | 0.00 | 0.00 | 0.00 | 72 | 1007.1 |
| 20260505035015 | 73 | 182 | 3.0 | 10.0 | 0.00 | 0.00 | 0.00 | 72 | 1007.3 |
| 20260505034532 | 73 | 188 | 3.0 | 12.0 | 0.00 | 0.00 | 0.00 | 72 | 1007.2 |
| 20260505034015 | 73 | 159 | 4.0 | 12.0 | 0.00 | 0.00 | 0.00 | 71 | 1007.3 |
| 20260505033516 | 73 | 167 | 3.0 | 11.0 | 0.00 | 0.00 | 0.00 | 71 | 1007.3 |
| 20260505033031 | 73 | 175 | 3.0 | 11.0 | 0.00 | 0.00 | 0.00 | 71 | 1007.3 |
| 20260505032516 | 73 | 146 | 3.0 | 10.0 | 0.00 | 0.00 | 0.00 | 71 | 1007.2 |
| 20260505032015 | 73 | 160 | 2.0 | 10.0 | 0.00 | 0.00 | 0.00 | 71 | 1007.2 |
| 20260505031532 | 73 | 148 | 3.0 | 7.0 | 0.00 | 0.00 | 0.00 | 71 | 1007.1 |
| 20260505031016 | 73 | 164 | 2.0 | 8.0 | 0.00 | 0.00 | 0.00 | 71 | 1007.2 |
| 20260505030519 | 73 | 161 | 3.0 | 8.0 | 0.00 | 0.00 | 0.00 | 71 | 1007.1 |
| 20260505030032 | 73 | 167 | 3.0 | 8.0 | 0.00 | 0.00 | 0.00 | 71 | 1006.9 |
| 20260505025518 | 74 | 200 | 3.0 | 9.0 | 0.00 | 0.00 | 0.00 | 71 | 1006.9 |
| 20260505025015 | 74 | 150 | 2.0 | 9.0 | 0.00 | 0.00 | 0.00 | 71 | 1007.0 |
| 20260505024533 | 74 | 159 | 3.0 | 9.0 | 0.00 | 0.00 | 0.00 | 70 | 1006.8 |
| 20260505024015 | 74 | 181 | 2.0 | 7.0 | 0.00 | 0.00 | 0.00 | 70 | 1007.0 |
| 20260505023515 | 74 | 164 | 1.0 | 6.0 | 0.00 | 0.00 | 0.00 | 70 | 1006.9 |
| 20260505023032 | 74 | 154 | 2.0 | 6.0 | 0.00 | 0.00 | 0.00 | 70 | 1006.8 |
| 20260505022516 | 74 | 162 | 2.0 | 5.0 | 0.00 | 0.00 | 0.00 | 69 | 1006.8 |
| 20260505022022 | 74 | 161 | 2.0 | 5.0 | 0.00 | 0.00 | 0.00 | 69 | 1006.9 |
| 20260505021531 | 75 | 171 | 2.0 | 10.0 | 0.00 | 0.00 | 0.00 | 69 | 1006.9 |
| 20260505021016 | 75 | 173 | 2.0 | 10.0 | 0.00 | 0.00 | 0.00 | 68 | 1006.8 |
| 20260505020515 | 75 | 146 | 3.0 | 10.0 | 0.00 | 0.00 | 0.00 | 68 | 1006.9 |
| 20260505020032 | 75 | 145 | 2.0 | 8.0 | 0.00 | 0.00 | 0.00 | 68 | 1006.8 |
| 20260505015516 | 75 | 200 | 2.0 | 8.0 | 0.00 | 0.00 | 0.00 | 67 | 1007.0 |
| 20260505015016 | 75 | 159 | 2.0 | 7.0 | 0.00 | 0.00 | 0.00 | 67 | 1006.9 |
| 20260505014532 | 76 | 155 | 1.0 | 6.0 | 0.00 | 0.00 | 0.00 | 67 | 1006.9 |
| 20260505014019 | 76 | 161 | 2.0 | 9.0 | 0.00 | 0.00 | 0.00 | 67 | 1006.5 |
| 20260505013515 | 76 | 164 | 3.0 | 11.0 | 0.00 | 0.00 | 0.00 | 66 | 1006.4 |
| 20260505013041 | 76 | 150 | 3.0 | 11.0 | 0.00 | 0.00 | 0.00 | 66 | 1006.6 |
| 20260505012515 | 76 | 145 | 2.0 | 7.0 | 0.00 | 0.00 | 0.00 | 66 | 1006.5 |
| 20260505012016 | 76 | 164 | 2.0 | 6.0 | 0.00 | 0.00 | 0.00 | 65 | 1006.6 |
| 20260505011532 | 76 | 167 | 2.0 | 7.0 | 0.00 | 0.00 | 0.00 | 64 | 1006.7 |
| 20260505011016 | 77 | 140 | 2.0 | 7.0 | 0.00 | 0.00 | 0.00 | 64 | 1006.5 |
| 20260505010519 | 77 | 157 | 1.0 | 8.0 | 0.00 | 0.00 | 0.00 | 63 | 1006.4 |
| 20260505010034 | 77 | 169 | 3.0 | 8.0 | 0.00 | 0.00 | 0.00 | 63 | 1006.4 |
| 20260505005516 | 77 | 180 | 2.0 | 6.0 | 0.00 | 0.00 | 0.00 | 63 | 1006.5 |
| 20260505005016 | 78 | 191 | 2.0 | 6.0 | 0.00 | 0.00 | 0.00 | 63 | 1006.5 |
| 20260505004532 | 78 | 169 | 2.0 | 6.0 | 0.00 | 0.00 | 0.00 | 62 | 1006.6 |
| 20260505004014 | 78 | 234 | 2.0 | 6.0 | 0.00 | 0.00 | 0.00 | 62 | 1006.6 |
| 20260505003516 | 78 | 157 | 3.0 | 9.0 | 0.00 | 0.00 | 0.00 | 61 | 1006.6 |
| 20260505003034 | 78 | 174 | 3.0 | 10.0 | 0.00 | 0.00 | 0.00 | 61 | 1006.6 |
| 20260505002516 | 79 | 159 | 3.0 | 10.0 | 0.00 | 0.00 | 0.00 | 61 | 1006.4 |
| 20260505002015 | 79 | 155 | 3.0 | 10.0 | 0.00 | 0.00 | 0.00 | 61 | 1006.5 |
| 20260505001532 | 79 | 160 | 3.0 | 10.0 | 0.00 | 0.00 | 0.00 | 61 | 1006.7 |
| 20260505001015 | 79 | 223 | 2.0 | 9.0 | 0.00 | 0.00 | 0.00 | 61 | 1006.6 |
| 20260505000515 | 79 | 196 | 3.0 | 8.0 | 0.00 | 0.00 | 0.00 | 62 | 1006.8 |
| 20260505000036 | 78 | 169 | 2.0 | 7.0 | 0.00 | 0.00 | 0.00 | 63 | 1006.8 |
| 20260504235515 | 78 | 163 | 3.0 | 7.0 | 0.00 | 0.00 | 0.00 | 63 | 1006.7 |
| 20260504235015 | 78 | 223 | 2.0 | 7.0 | 0.00 | 0.00 | 0.00 | 63 | 1006.8 |
| 20260504234535 | 79 | 150 | 2.0 | 7.0 | 0.00 | 0.00 | 0.00 | 62 | 1007.1 |
| 20260504234015 | 79 | 173 | 3.0 | 7.0 | 0.00 | 0.00 | 0.00 | 62 | 1007.1 |
| 20260504233514 | 79 | 156 | 3.0 | 8.0 | 0.00 | 0.00 | 0.00 | 62 | 1007.1 |
| 20260504233033 | 79 | 154 | 3.0 | 8.0 | 0.00 | 0.00 | 0.00 | 61 | 1007.2 |
| 20260504232516 | 79 | 136 | 2.0 | 9.0 | 0.00 | 0.00 | 0.00 | 61 | 1007.1 |
| 20260504232015 | 80 | 148 | 4.0 | 11.0 | 0.00 | 0.00 | 0.00 | 60 | 1007.1 |
| 20260504231529 | 80 | 180 | 5.0 | 11.0 | 0.00 | 0.00 | 0.00 | 59 | 1007.3 |
| 20260504231015 | 80 | 186 | 5.0 | 12.0 | 0.00 | 0.00 | 0.00 | 59 | 1007.3 |
| 20260504230515 | 81 | 142 | 5.0 | 19.0 | 0.00 | 0.00 | 0.00 | 58 | 1007.5 |
| 20260504230030 | 82 | 167 | 5.0 | 19.0 | 0.00 | 0.00 | 0.00 | 58 | 1007.5 |
| 20260504225516 | 81 | 162 | 5.0 | 13.0 | 0.00 | 0.00 | 0.00 | 58 | 1007.7 |
| 20260504225017 | 81 | 167 | 3.0 | 12.0 | 0.00 | 0.00 | 0.00 | 59 | 1007.8 |
| 20260504224531 | 80 | 208 | 4.0 | 9.0 | 0.00 | 0.00 | 0.00 | 60 | 1007.8 |
| 20260504224015 | 80 | 158 | 4.0 | 9.0 | 0.00 | 0.00 | 0.00 | 59 | 1007.8 |
| 20260504223515 | 81 | 145 | 3.0 | 13.0 | 0.00 | 0.00 | 0.00 | 58 | 1007.7 |
| 20260504223038 | 81 | 165 | 5.0 | 13.0 | 0.00 | 0.00 | 0.00 | 58 | 1007.7 |
| 20260504222515 | 81 | 192 | 3.0 | 11.0 | 0.00 | 0.00 | 0.00 | 58 | 1007.8 |
| 20260504222019 | 81 | 137 | 4.0 | 11.0 | 0.00 | 0.00 | 0.00 | 58 | 1007.8 |
| 20260504221532 | 81 | 182 | 4.0 | 11.0 | 0.00 | 0.00 | 0.00 | 57 | 1007.8 |
| 20260504221015 | 82 | 178 | 4.0 | 12.0 | 0.00 | 0.00 | 0.00 | 57 | 1007.7 |
| 20260504220515 | 82 | 186 | 6.0 | 12.0 | 0.00 | 0.00 | 0.00 | 57 | 1007.8 |
| 20260504220040 | 81 | 173 | 4.0 | 11.0 | 0.00 | 0.00 | 0.00 | 59 | 1007.8 |
| 20260504215516 | 81 | 150 | 5.0 | 12.0 | 0.00 | 0.00 | 0.00 | 58 | 1007.7 |